Regional Weather Roundup
Issued by NWS State College, PA

Home | Current Version | Previous Version | Text Only | Print | Product List | Glossary On
Versions: 1 2 3 4 5 6 7 8 9 10 11 12 13 14 15 16 17 18 19 20 21 22 23 24 25 26 27 28 29 30 31 32 33 34 35 36 37 38 39 40 41 42 43 44 45 46 47 48 49 50
000
ASUS41 KCTP 221603
RWRCTP

REGIONAL WEATHER ROUNDUP
NATIONAL WEATHER SERVICE STATE COLLEGE PA
1200 PM EDT WED OCT 22 2014

Note: "fair" indicates few or no clouds below 12,000 feet with no
significant weather and/or obstructions to visibility.

* = STATION THAT DOES NOT REPORT PRECIPITATION /E.G. RAIN...SNOW...ETC/
    THUNDER OR FOG.

PAZ002>004-007>009-013>016-020>023-029>032-221700-
WESTERN PENNSYLVANIA

CITY           SKY/WX    TMP DP  RH WIND       PRES   REMARKS
ERIE           CLOUDY    48  40  73 NE9       30.24S
MEADVILLE      CLOUDY    45  40  82 N7        30.21R
FRANKLIN*      CLOUDY    45  37  76 N7        30.20S
NEW CASTLE       N/A     47  42  82 N10G17    30.22R
BEAVER COUNTY  CLOUDY    48  43  81 N8        30.19R
BUTLER*        CLOUDY    46  39  76 N8G16     30.19S
PITTSBURGH INT CLOUDY    49  42  77 N17       30.17R
PITTSBURGH     CLOUDY    48  41  76 N8G17     30.15R
INDIANA*       CLOUDY    48  45  87 VRB6      30.16S
LATROBE        CLOUDY   N/A N/A N/A N7        30.14S
WASHINGTON CO* CLOUDY    48  43  81 N10       30.18S
$$

PAZ004>006-010>012-017>019-024>028-033>037-041-042-045-046-049>053-221700-
CENTRAL PENNSYLVANIA

CITY           SKY/WX    TMP DP  RH WIND       PRES   REMARKS
BRADFORD       FOG       42  40  92 N8        30.14S VSB 3/4
DUBOIS         CLOUDY    46  42  86 N18G25    30.11S
CLEARFIELD     CLOUDY    49  42  77 N16       30.11R
JOHNSTOWN      CLOUDY    43  41  93 N14       30.08S
ALTOONA        CLOUDY    48  44  86 N8        30.07R
STATE COLLEGE  CLOUDY    50  45  81 N13       30.06S
WILLIAMSPORT   CLOUDY    53  43  68 MISG      30.07R
SELINSGROVE    CLOUDY    53  46  77 N16G23    30.04R
FT INDIANTOWN  LGT RAIN  53  53  99 N8        29.98S
CAPITAL CITY   LGT RAIN  54  48  80 N8        29.99R
HARRISBURG     LGT RAIN  53  49  86 NW12      29.98R
YORK           LGT RAIN  53  49  86 N13G22    29.97R
$$

PAZ038>040-043-044-047-048-054-055-060>062-067>071-221700-
EASTERN PENNSYLVANIA

CITY           SKY/WX    TMP DP  RH WIND       PRES   REMARKS
SCRANTON       CLOUDY    53  46  77 N12       30.01S
MOUNT POCONO   CLOUDY    49  46  90 N14G20    29.97F
ALLENTOWN      CLOUDY    56  49  77 N9        29.95F
QUAKERTOWN*    CLOUDY    54  50  87 NE12G20   29.93F
READING        LGT RAIN  55  50  83 N10G20    29.94F
LANCASTER      LGT RAIN  54  50  86 N12       29.95S
COATESVILLE    LGT RAIN  52  50  93 N8G18     29.93R
POTTSTOWN      CLOUDY    54  49  83 NE10G23   29.94S
BLUE BELL      CLOUDY    54  52  94 N5        29.90S
DOYLESTOWN     LGT RAIN  52  51  97 N10G21    29.91F
WILLOW GROVE   NOT AVBL
NORTH PHILA    LGT RAIN  56  50  80 N17       29.91S
PHILADELPHIA   HVY RAIN  56  51  84 NE18G25   29.88S
$$



USA.gov is the U.S. government's official web portal to all federal, state and local government web resources and services.